2022/01/31 23:29:17+0000,-37.97,-47.16,-31.99,-48.32,-53.06,-51.99
2022/01/31 23:30:09+0000,-38.37,-47.43,-31.68,-49.14,-54.14,-52.18
2022/01/31 23:31:15+0000,-38.10,-47.06,-31.76,-48.75,-53.08,-52.35
2022/01/31 23:32:07+0000,-37.50,-47.98,-31.67,-47.84,-53.51,-52.37
2022/01/31 23:32:59+0000,-38.20,-46.19,-31.94,-48.05,-52.89,-52.51
2022/01/31 23:33:51+0000,-38.12,-47.31,-32.15,-48.20,-52.56,-51.96
2022/01/31 23:34:43+0000,-38.59,-47.79,-31.81,-49.05,-52.40,-51.93
2022/01/31 23:35:35+0000,-38.76,-46.84,-31.91,-49.24,-52.42,-52.66
2022/01/31 23:36:27+0000,-38.20,-46.87,-31.87,-47.52,-53.00,-51.79
2022/01/31 23:37:19+0000,-37.71,-47.17,-32.77,-49.76,-52.25,-52.50
2022/01/31 23:38:11+0000,-38.63,-47.21,-31.41,-47.54,-53.17,-51.88
2022/01/31 23:39:03+0000,-38.50,-47.20,-31.47,-48.52,-53.35,-53.16
2022/01/31 23:39:55+0000,-38.49,-48.01,-31.19,-48.52,-52.67,-52.38
2022/01/31 23:40:47+0000,-38.56,-47.26,-31.81,-47.20,-52.13,-52.85
2022/01/31 23:41:51+0000,-37.83,-47.30,-31.17,-48.29,-52.39,-52.02
2022/01/31 23:42:43+0000,-37.98,-47.83,-31.43,-47.65,-52.11,-52.13
2022/01/31 23:43:35+0000,-37.61,-47.61,-31.73,-49.17,-52.94,-52.50
2022/01/31 23:44:27+0000,-38.19,-47.68,-31.37,-47.95,-52.76,-52.13
2022/01/31 23:45:19+0000,-38.20,-47.00,-31.93,-49.63,-52.61,-52.09
2022/01/31 23:46:11+0000,-37.31,-46.87,-31.53,-48.41,-52.86,-52.02
2022/01/31 23:47:03+0000,-37.77,-47.62,-31.27,-48.71,-52.20,-52.24
2022/01/31 23:47:55+0000,-37.98,-47.27,-31.42,-47.06,-52.58,-51.61
2022/01/31 23:48:47+0000,-38.37,-48.98,-31.61,-47.89,-52.72,-51.54
2022/01/31 23:49:39+0000,-36.99,-48.54,-31.77,-48.62,-53.08,-52.09
2022/01/31 23:50:31+0000,-38.61,-48.33,-31.07,-49.12,-52.37,-52.28
2022/01/31 23:51:29+0000,-38.05,-48.45,-31.87,-49.08,-53.38,-51.78
2022/01/31 23:52:22+0000,-38.18,-47.79,-32.00,-47.42,-52.65,-52.41
2022/01/31 23:53:14+0000,-38.17,-47.22,-31.97,-48.76,-52.74,-52.00
2022/01/31 23:54:06+0000,-37.88,-48.47,-31.72,-47.49,-52.72,-52.31
2022/01/31 23:54:58+0000,-38.19,-48.40,-31.72,-47.69,-52.64,-52.63
2022/01/31 23:55:50+0000,-38.27,-49.07,-32.12,-48.77,-52.38,-52.52
2022/01/31 23:56:42+0000,-38.00,-48.58,-32.11,-48.95,-52.64,-52.20
2022/01/31 23:57:34+0000,-37.97,-48.44,-32.22,-48.89,-52.35,-51.86
2022/01/31 23:58:26+0000,-38.47,-47.54,-31.64,-47.27,-52.68,-52.09
2022/01/31 23:59:18+0000,-37.96,-48.24,-32.61,-48.38,-52.55,-52.25
2022/02/01 00:00:10+0000,-37.99,-48.46,-32.30,-47.94,-52.62,-52.00
2022/02/01 00:01:21+0000,-37.59,-48.76,-32.19,-46.98,-52.61,-52.83
2022/02/01 00:02:13+0000,-36.76,-46.80,-32.04,-47.33,-52.89,-52.51
2022/02/01 00:03:05+0000,-38.13,-47.51,-32.16,-47.69,-52.48,-51.75
2022/02/01 00:03:57+0000,-37.52,-47.00,-32.03,-44.04,-52.77,-52.01
2022/02/01 00:04:49+0000,-37.91,-46.50,-31.83,-48.74,-52.08,-52.32
2022/02/01 00:05:41+0000,-38.23,-47.06,-31.80,-47.82,-52.54,-52.39
2022/02/01 00:06:33+0000,-38.37,-47.15,-32.20,-48.81,-52.62,-51.76
2022/02/01 00:07:25+0000,-37.50,-46.80,-31.37,-47.31,-53.16,-52.73
2022/02/01 00:08:17+0000,-37.69,-45.66,-31.79,-48.45,-52.20,-51.92
2022/02/01 00:09:09+0000,-38.45,-48.41,-32.11,-49.37,-52.69,-52.57
2022/02/01 00:10:01+0000,-38.60,-47.81,-31.73,-47.89,-53.07,-52.68
2022/02/01 00:11:07+0000,-37.66,-48.00,-32.62,-47.42,-52.72,-51.74
2022/02/01 00:11:59+0000,-38.37,-48.40,-32.50,-47.40,-52.21,-51.99
2022/02/01 00:12:51+0000,-38.28,-48.98,-32.43,-48.10,-52.52,-52.42
2022/02/01 00:13:44+0000,-37.62,-47.89,-32.55,-46.75,-52.49,-52.54
2022/02/01 00:14:36+0000,-38.62,-48.73,-31.86,-49.17,-52.85,-52.39
2022/02/01 00:15:28+0000,-37.75,-49.01,-31.86,-49.53,-52.82,-52.48
2022/02/01 00:16:20+0000,-38.66,-48.20,-31.61,-51.05,-52.66,-52.27
2022/02/01 00:17:12+0000,-39.04,-48.45,-32.25,-49.72,-52.74,-52.05
2022/02/01 00:18:04+0000,-38.19,-47.76,-31.83,-51.77,-52.47,-52.76
2022/02/01 00:18:56+0000,-38.61,-47.00,-31.28,-46.90,-52.34,-52.64
2022/02/01 00:19:48+0000,-39.26,-47.44,-31.95,-52.33,-52.69,-53.11
2022/02/01 00:20:40+0000,-39.17,-46.52,-31.58,-49.69,-52.46,-53.16
2022/02/01 00:21:43+0000,-37.96,-47.15,-32.22,-50.52,-52.71,-52.75
2022/02/01 00:22:35+0000,-38.47,-47.19,-31.94,-51.97,-52.17,-52.31
2022/02/01 00:23:27+0000,-37.51,-45.69,-31.46,-46.80,-52.95,-53.00
2022/02/01 00:24:19+0000,-38.47,-47.29,-31.31,-53.65,-52.93,-52.05
2022/02/01 00:25:11+0000,-39.13,-46.38,-31.41,-52.37,-52.26,-52.55
2022/02/01 00:26:03+0000,-38.00,-46.83,-31.82,-53.13,-52.97,-52.84
2022/02/01 00:26:55+0000,-37.85,-47.07,-31.83,-49.00,-52.51,-51.84
2022/02/01 00:27:47+0000,-38.52,-47.67,-32.48,-51.59,-52.60,-52.47
2022/02/01 00:28:39+0000,-38.24,-46.41,-31.67,-52.12,-52.70,-52.38
2022/02/01 00:29:31+0000,-38.63,-46.60,-32.16,-46.97,-52.56,-52.77
2022/02/01 00:30:23+0000,-37.74,-47.29,-32.15,-48.21,-52.47,-52.71
2022/02/01 00:31:24+0000,-37.56,-47.38,-31.44,-49.20,-52.26,-52.23
2022/02/01 00:32:16+0000,-37.96,-46.40,-31.28,-52.31,-52.90,-52.29
2022/02/01 00:33:08+0000,-37.83,-46.55,-31.57,-52.06,-52.64,-52.35
2022/02/01 00:34:00+0000,-39.18,-46.83,-32.02,-49.38,-53.36,-52.00
2022/02/01 00:34:52+0000,-38.77,-47.38,-31.72,-48.05,-52.69,-51.75
2022/02/01 00:35:44+0000,-38.62,-46.94,-32.03,-51.04,-53.25,-52.10
2022/02/01 00:36:36+0000,-38.43,-47.20,-31.93,-52.35,-52.70,-52.27
2022/02/01 00:37:28+0000,-37.77,-47.24,-31.51,-50.91,-52.72,-52.34
2022/02/01 00:38:20+0000,-37.13,-46.52,-31.39,-53.69,-52.57,-52.87
2022/02/01 00:39:12+0000,-37.75,-46.49,-31.10,-52.75,-53.37,-52.72
2022/02/01 00:40:04+0000,-37.20,-46.65,-31.19,-54.43,-52.46,-52.58
2022/02/01 00:41:05+0000,-37.99,-46.90,-31.67,-54.44,-52.48,-52.54
2022/02/01 00:41:57+0000,-37.24,-46.82,-32.22,-52.57,-53.04,-52.13
2022/02/01 00:42:49+0000,-37.59,-45.63,-31.92,-54.53,-52.96,-52.43
2022/02/01 00:43:41+0000,-37.85,-45.61,-32.27,-52.95,-52.80,-52.32
2022/02/01 00:44:33+0000,-37.45,-47.09,-31.69,-50.90,-52.43,-52.53
2022/02/01 00:45:25+0000,-37.81,-46.90,-31.67,-51.97,-52.43,-52.51
2022/02/01 00:46:17+0000,-38.02,-46.56,-31.91,-52.84,-51.99,-52.02
2022/02/01 00:47:09+0000,-37.86,-46.09,-32.08,-52.37,-52.03,-52.21
2022/02/01 00:48:01+0000,-38.16,-47.55,-31.76,-52.85,-52.59,-52.22
2022/02/01 00:48:53+0000,-38.46,-46.96,-31.71,-52.81,-52.95,-52.74
2022/02/01 00:49:45+0000,-37.88,-43.38,-32.47,-51.75,-52.29,-52.48
2022/02/01 00:50:37+0000,-37.33,-46.43,-31.61,-52.27,-52.76,-52.85
2022/02/01 00:51:41+0000,-38.16,-46.39,-32.23,-52.44,-52.41,-51.43
2022/02/01 00:52:33+0000,-38.36,-46.50,-31.65,-51.71,-51.77,-52.28
2022/02/01 00:53:25+0000,-38.06,-45.44,-32.51,-50.32,-51.47,-52.15
2022/02/01 00:54:17+0000,-37.76,-46.67,-31.66,-50.90,-51.78,-51.31
2022/02/01 00:55:09+0000,-37.76,-46.52,-31.41,-50.33,-51.58,-52.36
2022/02/01 00:56:01+0000,-38.37,-46.99,-31.95,-48.30,-51.78,-52.39
2022/02/01 00:56:53+0000,-37.99,-47.40,-32.45,-52.62,-51.75,-51.89
2022/02/01 00:57:45+0000,-38.39,-46.69,-31.78,-52.04,-52.13,-52.43
2022/02/01 00:58:37+0000,-37.64,-46.21,-31.88,-51.85,-51.87,-51.83
2022/02/01 00:59:29+0000,-37.10,-45.70,-31.93,-51.99,-52.06,-51.25
2022/02/01 01:00:21+0000,-37.94,-45.85,-31.81,-53.66,-52.00,-51.87
2022/02/01 01:01:19+0000,-37.40,-46.35,-32.02,-54.09,-51.66,-51.73
2022/02/01 01:02:12+0000,-37.91,-45.72,-32.21,-50.82,-51.75,-52.50
2022/02/01 01:03:04+0000,-37.76,-44.38,-31.98,-54.02,-52.02,-52.06
2022/02/01 01:03:56+0000,-37.78,-43.17,-31.96,-50.87,-51.76,-52.32
2022/02/01 01:04:48+0000,-37.43,-46.08,-31.83,-53.94,-52.38,-52.17
2022/02/01 01:05:40+0000,-37.28,-45.39,-31.79,-51.53,-52.01,-52.41
2022/02/01 01:06:32+0000,-37.89,-45.65,-31.69,-50.08,-52.32,-52.57
2022/02/01 01:07:24+0000,-37.90,-44.54,-31.56,-50.95,-51.74,-51.85
2022/02/01 01:08:16+0000,-37.82,-46.34,-31.49,-51.70,-51.81,-52.30
2022/02/01 01:09:08+0000,-37.35,-45.72,-31.69,-50.14,-51.96,-51.72
2022/02/01 01:10:00+0000,-37.78,-44.69,-31.76,-51.37,-51.83,-52.34
2022/02/01 01:11:03+0000,-38.32,-44.39,-31.79,-54.62,-52.06,-52.04
2022/02/01 01:11:55+0000,-37.49,-44.95,-31.71,-51.48,-51.89,-52.13
2022/02/01 01:12:47+0000,-37.94,-46.86,-32.25,-53.92,-51.67,-52.34
2022/02/01 01:13:39+0000,-38.23,-46.83,-31.44,-52.21,-51.50,-51.77
2022/02/01 01:14:31+0000,-37.97,-45.57,-31.91,-51.24,-51.21,-51.80
2022/02/01 01:15:23+0000,-37.40,-47.14,-31.39,-52.03,-51.84,-51.52
2022/02/01 01:16:16+0000,-37.75,-47.07,-32.34,-51.30,-51.46,-51.65
2022/02/01 01:17:08+0000,-37.21,-47.07,-31.69,-52.19,-51.16,-51.38
2022/02/01 01:18:00+0000,-37.28,-45.99,-32.22,-52.44,-51.61,-51.68
2022/02/01 01:18:52+0000,-37.27,-47.35,-31.30,-51.10,-51.44,-51.66
2022/02/01 01:19:44+0000,-37.95,-47.37,-32.28,-51.35,-51.44,-51.78
2022/02/01 01:20:36+0000,-37.26,-48.39,-31.44,-51.42,-52.66,-51.34
2022/02/01 01:21:34+0000,-37.49,-46.69,-31.73,-54.51,-51.39,-52.11
2022/02/01 01:22:26+0000,-37.62,-45.79,-31.62,-50.88,-51.83,-51.79
2022/02/01 01:23:18+0000,-37.59,-46.92,-31.66,-54.51,-52.17,-51.91
2022/02/01 01:24:10+0000,-37.14,-47.18,-31.65,-53.79,-51.61,-51.93
2022/02/01 01:25:02+0000,-37.69,-46.69,-31.84,-50.46,-51.37,-51.90
2022/02/01 01:25:54+0000,-37.19,-45.93,-31.22,-52.04,-52.07,-52.11
2022/02/01 01:26:46+0000,-37.79,-45.38,-31.16,-52.27,-52.20,-51.26
2022/02/01 01:27:38+0000,-38.25,-46.44,-31.68,-51.96,-51.56,-51.68
2022/02/01 01:28:30+0000,-38.11,-44.84,-31.71,-50.06,-51.97,-51.53
2022/02/01 01:29:22+0000,-37.94,-47.63,-31.27,-52.05,-51.67,-51.41
2022/02/01 01:30:14+0000,-38.10,-45.89,-31.60,-51.10,-51.86,-51.45
2022/02/01 01:31:20+0000,-38.45,-45.48,-31.65,-53.92,-51.24,-52.05
2022/02/01 01:32:12+0000,-37.83,-45.96,-31.55,-53.35,-51.78,-51.32
2022/02/01 01:33:04+0000,-37.40,-47.08,-32.12,-54.10,-52.30,-52.30
2022/02/01 01:33:56+0000,-37.42,-46.23,-31.09,-52.59,-51.94,-51.79
2022/02/01 01:34:48+0000,-37.18,-45.15,-31.68,-52.44,-51.83,-51.64
2022/02/01 01:35:40+0000,-37.22,-45.07,-31.32,-49.83,-51.52,-51.67
2022/02/01 01:36:32+0000,-37.53,-46.66,-31.60,-51.76,-52.08,-51.94
2022/02/01 01:37:24+0000,-37.42,-46.08,-31.80,-53.06,-52.23,-51.98
2022/02/01 01:38:16+0000,-37.42,-46.23,-31.36,-49.79,-51.26,-51.95
2022/02/01 01:39:08+0000,-37.51,-47.67,-31.37,-49.48,-52.06,-51.80
2022/02/01 01:40:00+0000,-37.56,-45.47,-31.94,-53.21,-51.42,-51.58
2022/02/01 01:41:01+0000,-38.24,-45.17,-31.79,-53.80,-52.25,-51.77
2022/02/01 01:41:53+0000,-37.61,-46.08,-31.79,-52.84,-51.86,-51.56
2022/02/01 01:42:45+0000,-37.31,-44.46,-31.78,-50.22,-52.12,-51.89
2022/02/01 01:43:37+0000,-38.07,-47.31,-31.56,-50.37,-51.44,-51.86
2022/02/01 01:44:30+0000,-38.38,-45.52,-32.06,-53.54,-51.75,-51.86
2022/02/01 01:45:22+0000,-37.29,-47.62,-32.05,-54.04,-51.78,-51.93
2022/02/01 01:46:14+0000,-38.55,-46.27,-32.05,-50.39,-51.28,-52.26
2022/02/01 01:47:06+0000,-37.85,-45.60,-31.69,-53.87,-51.65,-51.36
2022/02/01 01:47:58+0000,-37.06,-44.77,-31.08,-53.19,-52.23,-52.17
2022/02/01 01:48:50+0000,-38.33,-46.09,-31.99,-54.52,-51.80,-51.96
2022/02/01 01:49:42+0000,-37.75,-46.26,-30.80,-49.72,-51.62,-52.47
2022/02/01 01:50:34+0000,-37.74,-46.95,-31.61,-53.50,-51.50,-51.66
2022/02/01 01:51:32+0000,-38.46,-45.35,-31.75,-51.41,-51.91,-52.17
2022/02/01 01:52:24+0000,-37.53,-45.34,-31.77,-53.48,-51.88,-52.02
2022/02/01 01:53:16+0000,-37.83,-44.98,-31.48,-48.97,-51.58,-52.10
2022/02/01 01:54:08+0000,-37.30,-47.95,-31.51,-48.37,-52.55,-52.27
2022/02/01 01:55:00+0000,-37.26,-45.22,-31.91,-53.87,-51.64,-51.64
2022/02/01 01:55:52+0000,-38.26,-47.15,-32.46,-53.96,-51.94,-51.80
2022/02/01 01:56:44+0000,-38.69,-42.12,-32.53,-51.70,-52.55,-51.79
2022/02/01 01:57:36+0000,-37.77,-45.98,-31.76,-53.46,-51.47,-52.59
2022/02/01 01:58:28+0000,-37.36,-45.80,-31.98,-51.97,-51.92,-52.41
2022/02/01 01:59:20+0000,-38.10,-45.22,-32.02,-54.69,-51.89,-52.16
2022/02/01 02:00:12+0000,-38.33,-45.34,-31.86,-53.78,-51.92,-52.57
2022/02/01 02:01:11+0000,-37.33,-45.59,-31.64,-53.03,-52.06,-52.35
2022/02/01 02:02:03+0000,-38.06,-45.65,-31.64,-54.45,-52.36,-52.06
2022/02/01 02:02:55+0000,-38.30,-45.88,-32.37,-50.75,-51.79,-51.78
2022/02/01 02:03:47+0000,-37.59,-46.58,-31.60,-54.21,-52.48,-52.07
2022/02/01 02:04:39+0000,-38.18,-45.72,-32.87,-52.61,-51.78,-52.16
2022/02/01 02:05:31+0000,-37.69,-46.41,-32.00,-50.45,-51.83,-52.22
2022/02/01 02:06:23+0000,-38.19,-45.34,-32.15,-54.06,-51.85,-51.92
2022/02/01 02:07:15+0000,-38.35,-45.10,-31.48,-49.74,-51.51,-52.20
2022/02/01 02:08:07+0000,-37.74,-45.28,-32.48,-49.92,-52.13,-51.97
2022/02/01 02:08:59+0000,-38.25,-45.51,-31.55,-53.70,-52.13,-51.71
2022/02/01 02:09:52+0000,-38.53,-46.17,-31.78,-54.13,-52.37,-51.90
2022/02/01 02:10:44+0000,-38.36,-44.62,-32.37,-50.05,-52.28,-52.44
2022/02/01 02:11:52+0000,-38.45,-45.28,-31.23,-54.27,-51.45,-51.72
2022/02/01 02:12:44+0000,-38.77,-46.28,-31.88,-53.63,-51.98,-52.22
2022/02/01 02:13:36+0000,-38.29,-47.78,-31.78,-52.41,-51.52,-51.49
2022/02/01 02:14:28+0000,-37.88,-45.93,-31.99,-54.51,-52.14,-52.14
2022/02/01 02:15:20+0000,-38.43,-47.92,-31.71,-53.73,-51.61,-51.86
2022/02/01 02:16:12+0000,-38.88,-44.63,-31.84,-49.75,-51.58,-52.12
2022/02/01 02:17:04+0000,-38.33,-44.88,-32.15,-54.60,-51.65,-51.90
2022/02/01 02:17:56+0000,-38.84,-43.74,-32.29,-54.55,-52.05,-52.15
2022/02/01 02:18:48+0000,-38.06,-44.76,-32.23,-54.34,-51.38,-51.71
2022/02/01 02:19:40+0000,-38.82,-41.03,-32.37,-51.22,-51.98,-51.79
2022/02/01 02:20:33+0000,-38.76,-44.38,-32.66,-53.24,-51.87,-51.42
2022/02/01 02:21:44+0000,-38.47,-40.75,-32.11,-50.83,-51.48,-51.76
2022/02/01 02:22:36+0000,-38.99,-46.49,-31.52,-50.27,-51.60,-51.62
2022/02/01 02:23:28+0000,-39.17,-44.24,-32.07,-50.64,-51.71,-51.52
2022/02/01 02:24:20+0000,-39.02,-41.32,-31.67,-54.31,-52.00,-52.00
2022/02/01 02:25:12+0000,-38.72,-46.17,-32.12,-48.21,-51.89,-51.59
2022/02/01 02:26:04+0000,-38.51,-44.53,-31.67,-54.13,-52.19,-52.01
2022/02/01 02:26:56+0000,-38.52,-44.85,-31.72,-51.41,-51.54,-51.82
2022/02/01 02:27:48+0000,-38.82,-43.65,-32.20,-54.30,-52.20,-51.61
2022/02/01 02:28:40+0000,-39.05,-43.33,-32.52,-50.53,-51.63,-51.98
2022/02/01 02:29:32+0000,-39.14,-46.03,-32.32,-51.49,-51.92,-51.98
2022/02/01 02:30:24+0000,-38.75,-44.69,-31.93,-54.95,-51.84,-51.73
2022/02/01 02:31:30+0000,-34.99,-44.88,-32.55,-54.02,-52.48,-51.69
2022/02/01 02:32:22+0000,-38.56,-45.95,-31.52,-53.78,-51.68,-52.00
2022/02/01 02:33:14+0000,-37.88,-42.04,-31.62,-50.76,-52.30,-51.90
2022/02/01 02:34:06+0000,-38.93,-45.11,-31.89,-50.81,-51.96,-51.94
2022/02/01 02:34:58+0000,-38.08,-44.54,-32.54,-53.73,-51.67,-52.25
2022/02/01 02:35:50+0000,-34.40,-43.44,-32.96,-53.51,-52.02,-52.42
2022/02/01 02:36:42+0000,-37.17,-40.14,-32.26,-50.65,-52.09,-51.98
2022/02/01 02:37:34+0000,-37.31,-45.44,-32.30,-54.16,-52.01,-51.45
2022/02/01 02:38:26+0000,-39.50,-44.79,-31.02,-53.21,-52.20,-52.25
2022/02/01 02:39:18+0000,-38.05,-44.93,-32.06,-53.96,-52.60,-52.11
2022/02/01 02:40:10+0000,-38.04,-45.08,-32.70,-54.59,-51.60,-51.29
2022/02/01 02:41:24+0000,-37.02,-45.11,-31.87,-53.53,-51.93,-51.78
2022/02/01 02:42:16+0000,-38.96,-45.22,-32.04,-50.18,-51.59,-52.44
2022/02/01 02:43:08+0000,-37.30,-46.43,-31.52,-50.01,-51.53,-52.24
2022/02/01 02:44:00+0000,-37.00,-45.03,-32.46,-54.36,-52.05,-51.71
2022/02/01 02:44:52+0000,-38.49,-46.45,-31.33,-53.89,-52.07,-51.98
2022/02/01 02:45:44+0000,-37.93,-44.47,-31.97,-53.86,-52.19,-51.91
2022/02/01 02:46:36+0000,-37.40,-45.71,-32.25,-53.88,-52.09,-52.14
2022/02/01 02:47:28+0000,-38.67,-44.04,-32.42,-54.22,-52.12,-51.74
2022/02/01 02:48:20+0000,-39.08,-44.57,-31.50,-53.92,-52.32,-52.47
2022/02/01 02:49:12+0000,-39.64,-43.86,-31.75,-54.43,-51.66,-51.49
2022/02/01 02:50:04+0000,-37.80,-44.46,-32.07,-54.45,-51.33,-51.54
2022/02/01 02:51:22+0000,-37.47,-45.43,-31.50,-54.44,-52.07,-51.95
2022/02/01 02:52:14+0000,-37.08,-40.38,-30.96,-54.28,-52.10,-51.91
2022/02/01 02:53:06+0000,-37.43,-46.15,-31.71,-53.99,-52.48,-51.56
2022/02/01 02:53:59+0000,-38.77,-45.34,-31.89,-53.69,-52.05,-52.47
2022/02/01 02:54:51+0000,-38.20,-44.11,-31.46,-53.43,-51.63,-52.01
2022/02/01 02:55:43+0000,-36.06,-44.02,-31.63,-53.36,-51.52,-52.04
2022/02/01 02:56:35+0000,-36.07,-44.39,-32.44,-53.03,-51.30,-51.97
2022/02/01 02:57:27+0000,-37.77,-43.36,-32.48,-54.14,-51.91,-51.59
2022/02/01 02:58:19+0000,-38.50,-43.20,-32.16,-53.44,-51.67,-50.83
2022/02/01 02:59:11+0000,-37.53,-43.23,-32.52,-53.77,-51.61,-51.81
2022/02/01 03:00:03+0000,-36.32,-43.49,-32.81,-53.86,-51.98,-51.68
2022/02/01 03:01:09+0000,-36.04,-43.57,-32.23,-53.52,-52.42,-52.10
2022/02/01 03:02:01+0000,-37.37,-42.85,-32.01,-53.15,-52.30,-52.10
2022/02/01 03:02:53+0000,-38.20,-44.02,-32.05,-54.37,-51.70,-52.22
2022/02/01 03:03:45+0000,-38.04,-44.36,-31.92,-54.65,-51.85,-52.26
2022/02/01 03:04:37+0000,-37.33,-44.28,-32.09,-53.90,-51.83,-52.15
2022/02/01 03:05:29+0000,-38.76,-44.27,-32.20,-53.89,-51.65,-52.80
2022/02/01 03:06:21+0000,-38.65,-44.38,-32.93,-53.97,-51.28,-52.28
2022/02/01 03:07:13+0000,-38.47,-43.88,-32.30,-53.72,-51.80,-51.83
2022/02/01 03:08:05+0000,-38.04,-44.78,-32.20,-53.83,-52.41,-51.86
2022/02/01 03:08:57+0000,-38.18,-45.18,-32.13,-54.18,-51.29,-52.15
2022/02/01 03:09:49+0000,-37.76,-42.34,-32.36,-54.34,-51.99,-52.60
2022/02/01 03:10:41+0000,-38.26,-42.97,-31.63,-53.80,-51.80,-52.33
2022/02/01 03:11:42+0000,-37.66,-43.07,-31.79,-53.55,-51.32,-51.94
2022/02/01 03:12:34+0000,-38.77,-44.32,-31.94,-54.18,-51.55,-52.23
2022/02/01 03:13:26+0000,-38.41,-44.53,-31.91,-53.94,-51.66,-51.79
2022/02/01 03:14:18+0000,-38.28,-44.02,-32.35,-53.99,-51.60,-52.35
2022/02/01 03:15:10+0000,-38.62,-43.07,-32.43,-53.30,-51.88,-52.55
2022/02/01 03:16:02+0000,-37.79,-43.67,-32.45,-53.89,-51.44,-52.21
2022/02/01 03:16:54+0000,-38.28,-44.53,-31.80,-53.58,-51.69,-52.33
2022/02/01 03:17:46+0000,-38.67,-42.69,-31.94,-53.86,-51.60,-52.65
2022/02/01 03:18:38+0000,-38.73,-44.68,-31.64,-54.33,-51.53,-52.51
2022/02/01 03:19:30+0000,-38.87,-43.36,-31.52,-53.59,-51.93,-51.86
2022/02/01 03:20:23+0000,-38.80,-44.40,-31.89,-53.32,-52.12,-51.54
2022/02/01 03:21:21+0000,-39.35,-46.34,-31.83,-53.56,-50.97,-52.58
2022/02/01 03:22:13+0000,-38.32,-45.87,-31.39,-51.84,-52.02,-51.63
2022/02/01 03:23:05+0000,-38.28,-44.24,-32.25,-53.29,-51.60,-51.36
2022/02/01 03:23:57+0000,-38.64,-43.57,-31.90,-53.33,-52.08,-50.86
2022/02/01 03:24:49+0000,-38.55,-44.85,-31.86,-54.11,-51.68,-51.86
2022/02/01 03:25:41+0000,-33.80,-43.02,-32.00,-53.40,-51.80,-51.56
2022/02/01 03:26:33+0000,-38.12,-41.78,-30.98,-53.29,-51.23,-51.56
2022/02/01 03:27:25+0000,-38.99,-41.55,-31.73,-53.64,-51.28,-51.74
2022/02/01 03:28:17+0000,-38.58,-43.88,-27.51,-53.55,-51.43,-52.96
2022/02/01 03:29:09+0000,-37.12,-43.77,-31.11,-53.49,-51.37,-52.26
2022/02/01 03:30:01+0000,-38.54,-45.32,-31.60,-53.53,-52.19,-51.57
2022/02/01 03:31:05+0000,-38.26,-43.74,-31.91,-52.83,-51.01,-52.79
2022/02/01 03:31:57+0000,-37.67,-42.56,-31.54,-52.95,-51.32,-52.08
2022/02/01 03:32:49+0000,-38.13,-44.01,-32.30,-53.49,-51.87,-51.74
2022/02/01 03:33:41+0000,-37.05,-44.14,-32.06,-53.06,-51.61,-52.22
2022/02/01 03:34:33+0000,-38.08,-44.16,-31.78,-53.07,-51.95,-52.19
2022/02/01 03:35:25+0000,-37.91,-44.61,-31.64,-53.13,-51.65,-52.47
2022/02/01 03:36:17+0000,-37.48,-44.31,-32.30,-52.65,-51.42,-51.62
2022/02/01 03:37:09+0000,-37.28,-43.95,-31.24,-52.86,-51.70,-52.38
2022/02/01 03:38:01+0000,-38.26,-45.47,-31.95,-52.64,-51.75,-51.66
2022/02/01 03:38:53+0000,-36.59,-44.37,-31.69,-53.18,-51.76,-52.11
2022/02/01 03:39:46+0000,-38.21,-44.70,-31.55,-53.05,-51.78,-51.85
2022/02/01 03:40:38+0000,-38.19,-45.90,-31.76,-52.74,-52.22,-51.73
2022/02/01 03:41:47+0000,-38.14,-44.04,-31.68,-52.37,-51.70,-52.14
2022/02/01 03:42:39+0000,-37.28,-44.63,-31.70,-52.63,-51.66,-51.74
2022/02/01 03:43:31+0000,-39.05,-46.22,-31.77,-53.10,-51.23,-52.21
2022/02/01 03:44:23+0000,-39.16,-45.46,-31.16,-52.69,-52.01,-51.60
2022/02/01 03:45:15+0000,-38.58,-44.59,-31.71,-53.68,-51.73,-51.70
2022/02/01 03:46:07+0000,-37.01,-45.81,-31.68,-53.13,-51.83,-51.83
2022/02/01 03:46:59+0000,-38.11,-44.68,-31.96,-53.18,-51.77,-51.15
2022/02/01 03:47:51+0000,-37.52,-45.91,-31.96,-52.88,-51.25,-52.13
2022/02/01 03:48:43+0000,-37.70,-45.04,-31.69,-53.24,-51.57,-51.69
2022/02/01 03:49:35+0000,-37.19,-42.12,-32.10,-51.88,-47.33,-51.68
2022/02/01 03:50:28+0000,-37.36,-43.90,-31.37,-51.84,-47.42,-51.97
2022/02/01 03:51:33+0000,-37.35,-42.79,-32.80,-52.05,-46.49,-51.22
2022/02/01 03:52:25+0000,-37.18,-43.01,-31.58,-52.46,-46.85,-52.06
2022/02/01 03:53:17+0000,-37.64,-42.70,-31.17,-52.15,-47.53,-51.72
2022/02/01 03:54:09+0000,-37.91,-44.00,-31.51,-51.47,-47.15,-51.36
2022/02/01 03:55:01+0000,-38.40,-44.30,-31.88,-52.28,-46.36,-51.67
2022/02/01 03:55:53+0000,-36.54,-45.05,-31.88,-51.55,-46.93,-51.81
2022/02/01 03:56:45+0000,-37.16,-44.69,-31.88,-52.04,-46.57,-52.28
2022/02/01 03:57:37+0000,-37.03,-44.93,-31.55,-52.09,-47.03,-51.72
2022/02/01 03:58:29+0000,-34.40,-43.25,-32.28,-51.98,-47.49,-51.12
2022/02/01 03:59:21+0000,-35.29,-44.09,-31.78,-51.85,-46.86,-51.37
2022/02/01 04:00:14+0000,-37.10,-43.82,-31.81,-52.03,-46.86,-51.07
2022/02/01 04:01:18+0000,-37.20,-44.27,-31.99,-51.82,-46.49,-51.28
2022/02/01 04:02:10+0000,-37.96,-43.76,-31.92,-52.44,-46.61,-51.83
2022/02/01 04:03:02+0000,-37.88,-44.18,-31.66,-52.50,-47.07,-51.50
2022/02/01 04:03:54+0000,-37.76,-42.90,-31.86,-52.84,-47.73,-51.37
2022/02/01 04:04:46+0000,-38.34,-44.87,-31.53,-52.02,-47.29,-51.61
2022/02/01 04:05:38+0000,-37.58,-44.43,-31.83,-51.34,-46.54,-51.72
2022/02/01 04:06:30+0000,-38.34,-44.17,-31.60,-51.72,-47.32,-51.39
2022/02/01 04:07:22+0000,-38.05,-44.50,-31.96,-51.97,-47.27,-51.57
2022/02/01 04:08:14+0000,-37.39,-44.91,-31.36,-51.43,-47.22,-51.79
2022/02/01 04:09:06+0000,-37.24,-45.37,-31.44,-51.75,-47.18,-51.82
2022/02/01 04:09:58+0000,-38.58,-43.27,-31.66,-51.91,-47.58,-51.54
2022/02/01 04:10:51+0000,-35.33,-44.84,-31.64,-51.92,-47.80,-51.83
2022/02/01 04:11:49+0000,-34.44,-44.45,-31.17,-51.49,-47.39,-51.15
2022/02/01 04:12:41+0000,-36.60,-44.02,-31.76,-51.86,-46.94,-51.91
2022/02/01 04:13:33+0000,-37.61,-44.58,-31.42,-52.70,-47.43,-51.97
2022/02/01 04:14:25+0000,-34.94,-44.53,-31.95,-52.19,-46.92,-51.70
2022/02/01 04:15:17+0000,-33.44,-44.79,-31.82,-52.12,-47.42,-51.23
2022/02/01 04:16:09+0000,-37.61,-43.88,-31.77,-51.73,-47.09,-51.79
2022/02/01 04:17:01+0000,-37.32,-44.73,-31.77,-51.93,-47.30,-51.65
2022/02/01 04:17:53+0000,-34.67,-43.59,-31.44,-51.77,-48.06,-51.75
2022/02/01 04:18:45+0000,-37.42,-44.45,-31.75,-51.53,-47.60,-51.61
2022/02/01 04:19:37+0000,-37.35,-44.91,-30.84,-51.83,-47.49,-52.09
2022/02/01 04:20:29+0000,-37.01,-44.63,-31.39,-51.81,-48.08,-51.20
2022/02/01 04:21:34+0000,-38.51,-45.33,-31.65,-51.93,-47.10,-51.45
2022/02/01 04:22:26+0000,-37.34,-44.06,-31.60,-51.46,-47.70,-51.46
2022/02/01 04:23:18+0000,-38.52,-42.79,-31.25,-51.63,-46.95,-51.96
2022/02/01 04:24:10+0000,-36.94,-43.63,-31.40,-51.51,-47.15,-51.96
2022/02/01 04:25:02+0000,-36.82,-44.63,-32.10,-51.60,-47.79,-51.79
2022/02/01 04:25:54+0000,-37.16,-44.87,-32.62,-52.09,-47.25,-51.76
2022/02/01 04:26:46+0000,-35.43,-44.77,-32.44,-51.80,-47.69,-52.17
2022/02/01 04:27:38+0000,-38.61,-44.60,-32.24,-51.62,-47.84,-51.51
2022/02/01 04:28:31+0000,-37.56,-44.07,-32.25,-52.61,-47.44,-51.26
2022/02/01 04:29:23+0000,-36.22,-45.05,-32.18,-52.10,-48.27,-51.79
2022/02/01 04:30:15+0000,-37.42,-44.82,-32.10,-52.18,-47.32,-51.31
2022/02/01 04:31:13+0000,-36.08,-45.14,-32.12,-51.13,-47.19,-51.67
2022/02/01 04:32:05+0000,-37.15,-44.43,-31.69,-51.75,-47.07,-51.06
2022/02/01 04:32:57+0000,-35.94,-46.16,-32.29,-52.36,-47.33,-51.84
2022/02/01 04:33:49+0000,-36.83,-44.38,-33.05,-51.36,-47.40,-51.50
2022/02/01 04:34:41+0000,-36.02,-44.98,-32.39,-51.87,-47.31,-51.68
2022/02/01 04:35:34+0000,-38.01,-45.32,-31.55,-51.66,-47.42,-51.15
2022/02/01 04:36:26+0000,-36.67,-44.76,-32.14,-51.87,-47.51,-51.23
2022/02/01 04:37:18+0000,-36.14,-44.65,-32.51,-51.63,-47.50,-51.82
2022/02/01 04:38:10+0000,-37.70,-44.22,-31.71,-51.58,-47.41,-51.78
2022/02/01 04:39:02+0000,-37.56,-44.11,-32.19,-51.76,-47.57,-51.59
2022/02/01 04:39:54+0000,-36.04,-45.14,-32.10,-51.01,-47.43,-51.76
2022/02/01 04:40:46+0000,-37.28,-45.02,-32.06,-51.39,-47.66,-51.23
2022/02/01 04:41:44+0000,-37.55,-45.06,-31.58,-50.58,-47.56,-52.13
2022/02/01 04:42:36+0000,-37.39,-45.02,-32.02,-51.10,-46.92,-52.32
2022/02/01 04:43:28+0000,-37.08,-45.30,-31.83,-51.54,-46.55,-51.57
2022/02/01 04:44:20+0000,-37.51,-44.15,-31.69,-51.73,-47.03,-51.62
2022/02/01 04:45:12+0000,-37.01,-45.47,-32.20,-51.93,-46.91,-50.87